Time,TemperatureF,DewpointF,PressureIn,WindDirection,WindDirectionDegrees,WindSpeedMPH,WindSpeedGustMPH,Humidity,HourlyPrecipIn,Conditions,Clouds,dailyrainin,SoftwareType,DateUTC
2013-02-20 00:00:00,33.8,32.1,29.68,SW,231,11.4,22.8,93,0.00,,,0.00,VWS V14.01,2013-02-20 05:00:00,
2013-02-20 00:05:00,33.8,32.1,29.68,WSW,243,16.3,17.9,93,0.00,,,0.00,VWS V14.01,2013-02-20 05:05:00,
2013-02-20 00:10:00,33.8,32.1,29.71,WSW,242,8.1,17.9,93,0.00,,,0.00,VWS V14.01,2013-02-20 05:10:00,
2013-02-20 00:15:00,33.8,32.1,29.71,SW,231,10.5,17.9,93,0.00,,,0.00,VWS V14.01,2013-02-20 05:15:00,
2013-02-20 00:25:00,33.8,32.1,29.71,WSW,241,9.2,16.3,93,0.00,,,0.00,VWS V14.01,2013-02-20 05:25:00,
2013-02-20 00:30:00,33.8,32.1,29.71,WNW,283,14.1,16.3,93,0.00,,,0.00,VWS V14.01,2013-02-20 05:30:00,
2013-02-20 00:35:00,33.8,32.1,29.71,WSW,244,8.1,16.8,93,0.00,,,0.00,VWS V14.01,2013-02-20 05:35:00,
2013-02-20 00:40:00,33.8,32.1,29.71,WSW,251,8.3,16.8,93,0.00,,,0.00,VWS V14.01,2013-02-20 05:40:00,
2013-02-20 00:50:00,33.8,32.1,29.71,West,263,5.4,15.9,93,0.00,,,0.00,VWS V14.01,2013-02-20 05:50:00,
2013-02-20 01:00:00,33.8,32.1,29.71,WSW,246,8.7,15.4,93,0.00,,,0.00,VWS V14.01,2013-02-20 06:00:00,
2013-02-20 01:10:00,33.8,32.1,29.71,WSW,255,9.2,13.6,93,0.00,,,0.00,VWS V14.01,2013-02-20 06:10:00,
2013-02-20 01:15:00,33.8,32.1,29.71,WSW,241,15.0,16.3,93,0.00,,,0.00,VWS V14.01,2013-02-20 06:15:00,
2013-02-20 01:25:00,33.8,32.1,29.71,West,272,12.8,17.4,93,0.00,,,0.00,VWS V14.01,2013-02-20 06:25:00,
2013-02-20 01:35:00,33.8,32.1,29.71,West,262,8.1,19.7,93,0.00,,,0.00,VWS V14.01,2013-02-20 06:35:00,
2013-02-20 01:45:00,33.8,32.1,29.71,WSW,243,13.6,19.7,93,0.00,,,0.00,VWS V14.01,2013-02-20 06:45:00,
2013-02-20 01:50:00,33.8,32.1,29.71,WSW,239,12.3,15.4,93,0.00,,,0.00,VWS V14.01,2013-02-20 06:50:00,
2013-02-20 02:00:00,33.8,32.1,29.71,WSW,249,8.7,16.8,93,0.00,,,0.00,VWS V14.01,2013-02-20 07:00:00,
2013-02-20 02:10:00,33.8,32.1,29.71,WSW,238,8.3,15.0,93,0.00,,,0.00,VWS V14.01,2013-02-20 07:10:00,
2013-02-20 02:20:00,33.8,32.1,29.71,WSW,242,12.3,15.0,93,0.00,,,0.00,VWS V14.01,2013-02-20 07:20:00,
2013-02-20 02:25:00,33.8,32.1,29.71,WSW,251,10.5,12.3,93,0.00,,,0.00,VWS V14.01,2013-02-20 07:25:00,
2013-02-20 02:35:00,33.8,32.1,29.71,WSW,256,16.8,17.0,93,0.00,,,0.00,VWS V14.01,2013-02-20 07:35:00,
2013-02-20 02:45:00,33.8,32.1,29.71,WSW,244,7.6,17.0,93,0.00,,,0.00,VWS V14.01,2013-02-20 07:45:00,
2013-02-20 02:50:00,33.8,32.1,29.71,WSW,253,6.3,16.8,93,0.00,,,0.00,VWS V14.01,2013-02-20 07:50:00,
2013-02-20 03:00:00,33.8,32.1,29.71,West,266,10.5,13.2,93,0.00,,,0.00,VWS V14.01,2013-02-20 08:00:00,
2013-02-20 03:10:00,33.8,32.1,29.71,WSW,254,8.3,17.4,93,0.00,,,0.00,VWS V14.01,2013-02-20 08:10:00,
2013-02-20 03:20:00,33.8,32.1,29.71,WSW,252,8.7,15.4,93,0.00,,,0.00,VWS V14.01,2013-02-20 08:20:00,
2013-02-20 03:30:00,33.8,32.1,29.71,SW,236,8.3,15.4,93,0.00,,,0.00,VWS V14.01,2013-02-20 08:30:00,
2013-02-20 03:35:00,33.8,32.1,29.71,SW,235,8.3,15.4,93,0.00,,,0.00,VWS V14.01,2013-02-20 08:35:00,
2013-02-20 03:45:00,33.8,32.1,29.71,WSW,258,11.9,11.9,93,0.00,,,0.00,VWS V14.01,2013-02-20 08:45:00,
2013-02-20 03:55:00,33.8,32.1,29.71,WSW,254,8.7,13.6,93,0.00,,,0.00,VWS V14.01,2013-02-20 08:55:00,
2013-02-20 04:05:00,33.8,32.1,29.71,SW,229,7.6,13.6,93,0.00,,,0.00,VWS V14.01,2013-02-20 09:05:00,
2013-02-20 04:10:00,33.8,32.1,29.71,WSW,250,11.0,11.0,93,0.00,,,0.00,VWS V14.01,2013-02-20 09:10:00,
2013-02-20 04:20:00,33.8,32.1,29.71,WSW,258,8.3,13.2,93,0.00,,,0.00,VWS V14.01,2013-02-20 09:20:00,
2013-02-20 04:25:00,33.8,32.1,29.71,WSW,253,3.6,13.2,93,0.00,,,0.00,VWS V14.01,2013-02-20 09:25:00,
2013-02-20 04:35:00,33.8,32.1,29.71,West,262,11.0,12.3,93,0.00,,,0.00,VWS V14.01,2013-02-20 09:35:00,
2013-02-20 04:45:00,33.8,32.1,29.71,WSW,238,4.0,11.0,93,0.00,,,0.00,VWS V14.01,2013-02-20 09:45:00,
2013-02-20 04:55:00,33.8,32.1,29.71,WNW,291,8.7,13.2,93,0.00,,,0.00,VWS V14.01,2013-02-20 09:55:00,
2013-02-20 05:05:00,33.8,32.1,29.71,West,264,8.1,13.6,93,0.00,,,0.00,VWS V14.01,2013-02-20 10:05:00,
2013-02-20 05:10:00,33.8,32.1,29.71,WSW,255,8.3,15.4,93,0.00,,,0.00,VWS V14.01,2013-02-20 10:10:00,
2013-02-20 05:20:00,33.8,32.1,29.71,WSW,246,5.8,15.4,93,0.00,,,0.00,VWS V14.01,2013-02-20 10:20:00,
2013-02-20 05:30:00,33.8,32.1,29.71,SW,221,5.4,11.0,93,0.00,,,0.00,VWS V14.01,2013-02-20 10:30:00,
2013-02-20 05:40:00,33.8,32.1,29.71,West,266,8.3,15.4,93,0.00,,,0.00,VWS V14.01,2013-02-20 10:40:00,
2013-02-20 05:45:00,33.8,32.1,29.71,West,263,10.5,17.4,93,0.00,,,0.00,VWS V14.01,2013-02-20 10:45:00,
2013-02-20 05:55:00,33.8,32.1,29.74,WNW,288,8.1,21.5,93,0.00,,,0.00,VWS V14.01,2013-02-20 10:55:00,
2013-02-20 06:00:00,33.8,32.1,29.74,WSW,253,8.1,21.5,93,0.00,,,0.00,VWS V14.01,2013-02-20 11:00:00,
2013-02-20 06:05:00,33.8,32.1,29.74,West,273,10.1,17.0,93,0.00,,,0.00,VWS V14.01,2013-02-20 11:05:00,
2013-02-20 06:15:00,33.8,32.1,29.74,West,279,13.6,24.2,93,0.00,,,0.00,VWS V14.01,2013-02-20 11:15:00,
2013-02-20 06:20:00,33.8,32.1,29.74,WSW,255,8.7,24.2,93,0.00,,,0.00,VWS V14.01,2013-02-20 11:20:00,
2013-02-20 06:30:00,33.8,32.1,29.74,West,260,10.5,15.4,93,0.00,,,0.00,VWS V14.01,2013-02-20 11:30:00,
2013-02-20 06:40:00,33.8,32.1,29.74,WSW,258,12.8,16.3,93,0.00,,,0.00,VWS V14.01,2013-02-20 11:40:00,
2013-02-20 06:45:00,33.8,32.1,29.74,SW,233,12.8,19.2,93,0.00,,,0.00,VWS V14.01,2013-02-20 11:45:00,
2013-02-20 06:55:00,33.8,32.1,29.74,SW,236,8.7,19.2,93,0.00,,,0.00,VWS V14.01,2013-02-20 11:55:00,
2013-02-20 07:05:00,33.8,32.1,29.74,West,274,13.2,15.9,93,0.00,,,0.00,VWS V14.01,2013-02-20 12:05:00,
2013-02-20 07:15:00,33.8,32.1,29.74,WSW,241,15.0,15.4,93,0.00,,,0.00,VWS V14.01,2013-02-20 12:15:00,
2013-02-20 07:25:00,33.8,32.1,29.74,SW,215,8.1,17.4,93,0.00,,,0.00,VWS V14.01,2013-02-20 12:25:00,
2013-02-20 07:30:00,33.8,32.1,29.74,West,267,8.1,17.4,93,0.00,,,0.00,VWS V14.01,2013-02-20 12:30:00,
2013-02-20 07:40:00,33.8,32.1,29.77,West,259,12.8,21.0,93,0.00,,,0.00,VWS V14.01,2013-02-20 12:40:00,
2013-02-20 07:50:00,33.8,32.1,29.77,SW,235,8.7,21.0,93,0.00,,,0.00,VWS V14.01,2013-02-20 12:50:00,
2013-02-20 08:00:00,33.8,32.1,29.77,WSW,254,10.5,15.4,93,0.00,,,0.00,VWS V14.01,2013-02-20 13:00:00,
2013-02-20 08:05:00,33.8,32.1,29.77,WSW,248,5.8,15.4,93,0.00,,,0.00,VWS V14.01,2013-02-20 13:05:00,
2013-02-20 08:15:00,33.8,32.1,29.77,West,275,15.0,20.1,93,0.00,,,0.00,VWS V14.01,2013-02-20 13:15:00,
2013-02-20 08:20:00,33.8,32.1,29.77,West,271,12.8,22.4,93,0.00,,,0.00,VWS V14.01,2013-02-20 13:20:00,
2013-02-20 08:25:00,33.8,32.1,29.77,West,265,14.5,24.6,93,0.00,,,0.00,VWS V14.01,2013-02-20 13:25:00,
2013-02-20 08:35:00,19.2,8.5,29.77,WSW,242,12.8,24.6,62,0.00,,,0.00,VWS V14.01,2013-02-20 13:35:00,
2013-02-20 08:45:00,19.2,8.5,29.77,West,279,12.3,20.1,62,0.00,,,0.00,VWS V14.01,2013-02-20 13:45:00,
2013-02-20 08:50:00,19.2,8.5,29.77,West,272,10.5,17.0,62,0.00,,,0.00,VWS V14.01,2013-02-20 13:50:00,
2013-02-20 09:00:00,19.6,8.4,29.77,West,262,12.8,19.2,61,0.00,,,0.00,VWS V14.01,2013-02-20 14:00:00,
2013-02-20 09:05:00,19.6,8.4,29.77,WSW,241,13.2,17.0,61,0.00,,,0.00,VWS V14.01,2013-02-20 14:05:00,
2013-02-20 09:15:00,19.0,8.6,29.77,SW,235,14.5,25.1,63,0.00,,,0.00,VWS V14.01,2013-02-20 14:15:00,
2013-02-20 09:20:00,19.0,9.0,29.77,SW,231,8.3,17.4,64,0.00,,,0.00,VWS V14.01,2013-02-20 14:20:00,
2013-02-20 09:25:00,19.0,9.3,29.77,WSW,248,10.5,17.4,65,0.00,,,0.00,VWS V14.01,2013-02-20 14:25:00,
2013-02-20 09:35:00,19.2,9.8,29.77,West,276,14.1,19.2,66,0.00,,,0.00,VWS V14.01,2013-02-20 14:35:00,
2013-02-20 09:45:00,19.2,9.8,29.77,WSW,257,8.1,23.3,66,0.00,,,0.00,VWS V14.01,2013-02-20 14:45:00,
2013-02-20 09:50:00,19.2,9.8,29.77,West,259,13.2,25.1,66,0.00,,,0.00,VWS V14.01,2013-02-20 14:50:00,
2013-02-20 10:00:00,19.8,9.0,29.77,WSW,255,8.3,25.1,62,0.00,,,0.00,VWS V14.01,2013-02-20 15:00:00,
2013-02-20 10:10:00,20.3,8.8,29.77,WSW,247,14.5,17.0,60,0.00,,,0.00,VWS V14.01,2013-02-20 15:10:00,
2013-02-20 10:20:00,20.1,8.9,29.77,SW,228,10.5,22.4,61,0.00,,,0.00,VWS V14.01,2013-02-20 15:20:00,
2013-02-20 10:25:00,20.3,9.1,29.77,WSW,252,12.3,22.4,61,0.00,,,0.00,VWS V14.01,2013-02-20 15:25:00,
2013-02-20 10:35:00,19.9,9.1,29.77,SW,235,10.5,22.4,62,0.00,,,0.00,VWS V14.01,2013-02-20 15:35:00,
2013-02-20 10:40:00,20.3,9.5,29.77,SSW,211,8.1,20.6,62,0.00,,,0.00,VWS V14.01,2013-02-20 15:40:00,
2013-02-20 10:45:00,20.5,9.3,29.77,SW,236,11.0,22.4,61,0.00,,,0.00,VWS V14.01,2013-02-20 15:45:00,
2013-02-20 10:55:00,21.0,9.4,29.77,West,265,17.4,22.4,60,0.00,,,0.00,VWS V14.01,2013-02-20 15:55:00,
2013-02-20 11:00:00,20.8,9.3,29.77,WSW,248,13.2,22.8,60,0.00,,,0.00,VWS V14.01,2013-02-20 16:00:00,
2013-02-20 11:10:00,20.3,9.1,29.77,WNW,285,20.1,24.2,61,0.00,,,0.00,VWS V14.01,2013-02-20 16:10:00,
2013-02-20 11:20:00,20.7,9.1,29.77,WSW,246,8.1,23.3,60,0.00,,,0.00,VWS V14.01,2013-02-20 16:20:00,
2013-02-20 11:30:00,20.8,8.9,29.77,WSW,251,17.4,23.7,59,0.00,,,0.00,VWS V14.01,2013-02-20 16:30:00,
2013-02-20 11:35:00,20.7,8.4,29.77,WSW,255,17.9,23.7,58,0.00,,,0.00,VWS V14.01,2013-02-20 16:35:00,
2013-02-20 11:45:00,20.8,8.9,29.77,SW,232,16.3,22.8,59,0.00,,,0.00,VWS V14.01,2013-02-20 16:45:00,
2013-02-20 11:55:00,21.6,8.8,29.77,West,263,10.1,19.7,57,0.00,,,0.00,VWS V14.01,2013-02-20 16:55:00,
2013-02-20 12:05:00,21.9,9.1,29.77,SW,222,12.8,22.4,57,0.00,,,0.00,VWS V14.01,2013-02-20 17:05:00,
2013-02-20 12:10:00,21.7,9.0,29.77,WSW,254,10.5,22.4,57,0.00,,,0.00,VWS V14.01,2013-02-20 17:10:00,
2013-02-20 12:20:00,21.4,8.6,29.77,West,274,8.7,22.8,57,0.00,,,0.00,VWS V14.01,2013-02-20 17:20:00,
2013-02-20 12:25:00,21.2,8.9,29.77,WNW,284,8.1,22.8,58,0.00,,,0.00,VWS V14.01,2013-02-20 17:25:00,
2013-02-20 12:30:00,21.0,8.7,29.77,West,276,8.7,17.4,58,0.00,,,0.00,VWS V14.01,2013-02-20 17:30:00,
2013-02-20 12:35:00,20.8,8.9,29.77,West,268,16.8,17.4,59,0.00,,,0.00,VWS V14.01,2013-02-20 17:35:00,
2013-02-20 12:45:00,20.7,8.7,29.77,West,259,15.9,17.4,59,0.00,,,0.00,VWS V14.01,2013-02-20 17:45:00,
2013-02-20 12:55:00,20.7,8.7,29.80,WNW,292,15.4,21.9,59,0.00,,,0.00,VWS V14.01,2013-02-20 17:55:00,
2013-02-20 13:05:00,20.3,9.1,29.80,West,272,8.3,19.7,61,0.00,,,0.00,VWS V14.01,2013-02-20 18:05:00,
2013-02-20 13:10:00,20.7,9.5,29.77,WSW,238,18.8,19.2,61,0.00,,,0.00,VWS V14.01,2013-02-20 18:10:00,
2013-02-20 13:20:00,20.7,9.5,29.77,WSW,237,13.2,27.5,61,0.00,,,0.00,VWS V14.01,2013-02-20 18:20:00,
2013-02-20 13:30:00,20.3,9.5,29.80,WSW,244,17.4,22.8,62,0.00,,,0.00,VWS V14.01,2013-02-20 18:30:00,
2013-02-20 13:40:00,19.9,9.5,29.80,SW,224,13.2,22.8,63,0.00,,,0.00,VWS V14.01,2013-02-20 18:40:00,
2013-02-20 13:50:00,20.1,8.9,29.80,WSW,239,12.8,23.3,61,0.00,,,0.00,VWS V14.01,2013-02-20 18:50:00,
2013-02-20 13:55:00,19.9,9.5,29.80,SW,226,16.8,22.8,63,0.00,,,0.00,VWS V14.01,2013-02-20 18:55:00,
2013-02-20 14:00:00,19.9,9.1,29.80,West,273,13.2,24.2,62,0.00,,,0.00,VWS V14.01,2013-02-20 19:00:00,
2013-02-20 14:05:00,19.9,9.1,29.80,West,263,17.4,24.2,62,0.00,,,0.00,VWS V14.01,2013-02-20 19:05:00,
2013-02-20 14:15:00,20.7,9.8,29.80,WSW,258,17.4,22.8,62,0.00,,,0.00,VWS V14.01,2013-02-20 19:15:00,
2013-02-20 14:25:00,20.7,8.7,29.80,WSW,241,13.2,17.4,59,0.00,,,0.00,VWS V14.01,2013-02-20 19:25:00,
2013-02-20 14:30:00,20.7,8.7,29.80,WSW,241,12.3,24.6,59,0.00,,,0.00,VWS V14.01,2013-02-20 19:30:00,
2013-02-20 14:40:00,20.3,9.1,29.80,SW,223,10.5,20.6,61,0.00,,,0.00,VWS V14.01,2013-02-20 19:40:00,
2013-02-20 14:45:00,20.3,9.1,29.80,SW,233,11.0,20.6,61,0.00,,,0.00,VWS V14.01,2013-02-20 19:45:00,
2013-02-20 14:50:00,20.5,9.6,29.80,SSW,200,10.5,16.8,62,0.00,,,0.00,VWS V14.01,2013-02-20 19:50:00,
2013-02-20 15:00:00,20.7,10.5,29.80,West,264,16.8,19.7,64,0.00,,,0.00,VWS V14.01,2013-02-20 20:00:00,
2013-02-20 15:05:00,20.3,10.9,29.80,SW,220,12.8,19.7,66,0.00,,,0.00,VWS V14.01,2013-02-20 20:05:00,
2013-02-20 15:15:00,19.9,11.5,29.80,SW,227,13.2,19.7,69,0.00,,,0.00,VWS V14.01,2013-02-20 20:15:00,
2013-02-20 15:25:00,19.8,12.0,29.83,SW,231,17.4,21.0,71,0.00,,,0.00,VWS V14.01,2013-02-20 20:25:00,
2013-02-20 15:30:00,19.8,12.0,29.83,WSW,244,10.5,21.0,71,0.00,,,0.00,VWS V14.01,2013-02-20 20:30:00,
2013-02-20 15:40:00,19.8,12.0,29.80,SSW,213,13.2,18.3,71,0.00,,,0.00,VWS V14.01,2013-02-20 20:40:00,
2013-02-20 15:50:00,19.8,12.0,29.80,West,262,13.2,23.3,71,0.00,,,0.00,VWS V14.01,2013-02-20 20:50:00,
2013-02-20 16:00:00,19.8,12.0,29.83,West,263,17.0,24.2,71,0.00,,,0.00,VWS V14.01,2013-02-20 21:00:00,
2013-02-20 16:10:00,19.8,12.0,29.83,WSW,245,11.0,24.2,71,0.00,,,0.00,VWS V14.01,2013-02-20 21:10:00,
2013-02-20 16:15:00,19.8,12.0,29.83,SW,225,12.8,20.6,71,0.00,,,0.00,VWS V14.01,2013-02-20 21:15:00,
2013-02-20 16:25:00,19.8,12.0,29.83,WSW,244,10.5,22.8,71,0.00,,,0.00,VWS V14.01,2013-02-20 21:25:00,
2013-02-20 16:35:00,19.8,12.0,29.83,SW,233,7.6,17.4,71,0.00,,,0.00,VWS V14.01,2013-02-20 21:35:00,
2013-02-20 16:45:00,19.4,11.6,29.83,WSW,256,11.0,19.2,71,0.00,,,0.00,VWS V14.01,2013-02-20 21:45:00,
2013-02-20 16:50:00,19.4,11.3,29.83,West,259,15.9,19.2,70,0.00,,,0.00,VWS V14.01,2013-02-20 21:50:00,
2013-02-20 17:00:00,19.4,11.0,29.85,WSW,250,16.3,20.1,69,0.00,,,0.00,VWS V14.01,2013-02-20 22:00:00,
2013-02-20 17:05:00,19.4,11.0,29.85,West,259,13.2,22.4,69,0.00,,,0.00,VWS V14.01,2013-02-20 22:05:00,
2013-02-20 17:10:00,19.4,11.0,29.85,WSW,245,17.4,22.4,69,0.00,,,0.00,VWS V14.01,2013-02-20 22:10:00,
2013-02-20 17:20:00,19.4,11.0,29.85,WSW,253,12.8,19.7,69,0.00,,,0.00,VWS V14.01,2013-02-20 22:20:00,
2013-02-20 17:25:00,19.4,11.0,29.85,SW,230,8.7,19.7,69,0.00,,,0.00,VWS V14.01,2013-02-20 22:25:00,
2013-02-20 17:35:00,19.4,11.0,29.85,WSW,252,13.2,23.3,69,0.00,,,0.00,VWS V14.01,2013-02-20 22:35:00,
2013-02-20 17:45:00,19.4,11.0,29.85,West,265,12.3,19.7,69,0.00,,,0.00,VWS V14.01,2013-02-20 22:45:00,
2013-02-20 17:50:00,19.4,11.0,29.85,WNW,287,12.8,17.4,69,0.00,,,0.00,VWS V14.01,2013-02-20 22:50:00,
2013-02-20 18:00:00,19.4,11.0,29.88,WNW,282,19.7,19.7,69,0.00,,,0.00,VWS V14.01,2013-02-20 23:00:00,
2013-02-20 18:10:00,19.4,11.0,29.88,West,264,8.7,22.8,69,0.00,,,0.00,VWS V14.01,2013-02-20 23:10:00,
2013-02-20 18:15:00,19.4,11.0,29.88,WSW,241,16.3,22.8,69,0.00,,,0.00,VWS V14.01,2013-02-20 23:15:00,
2013-02-20 18:20:00,19.4,11.0,29.88,West,265,16.3,21.0,69,0.00,,,0.00,VWS V14.01,2013-02-20 23:20:00,
2013-02-20 18:30:00,19.4,11.0,29.88,West,267,13.2,23.7,69,0.00,,,0.00,VWS V14.01,2013-02-20 23:30:00,
2013-02-20 18:35:00,19.4,11.0,29.88,West,276,12.8,23.7,69,0.00,,,0.00,VWS V14.01,2013-02-20 23:35:00,
2013-02-20 18:40:00,19.4,11.0,29.88,WNW,294,13.2,19.7,69,0.00,,,0.00,VWS V14.01,2013-02-20 23:40:00,
2013-02-20 18:45:00,19.4,11.0,29.88,WSW,257,5.8,15.4,69,0.00,,,0.00,VWS V14.01,2013-02-20 23:45:00,
2013-02-20 18:55:00,19.4,11.0,29.88,WSW,251,10.1,15.0,69,0.00,,,0.00,VWS V14.01,2013-02-20 23:55:00,
2013-02-20 19:00:00,19.4,11.0,29.88,SW,234,9.2,13.2,69,0.00,,,0.00,VWS V14.01,2013-02-21 00:00:00,
2013-02-20 19:10:00,19.4,11.0,29.88,WSW,252,7.6,13.2,69,0.00,,,0.00,VWS V14.01,2013-02-21 00:10:00,
2013-02-20 19:20:00,19.4,11.0,29.88,WSW,253,12.3,16.3,69,0.00,,,0.00,VWS V14.01,2013-02-21 00:20:00,
2013-02-20 19:25:00,19.4,11.0,29.88,West,271,5.4,16.3,69,0.00,,,0.00,VWS V14.01,2013-02-21 00:25:00,
2013-02-20 19:30:00,19.4,11.0,29.88,SW,234,6.7,15.0,69,0.00,,,0.00,VWS V14.01,2013-02-21 00:30:00,
2013-02-20 19:40:00,19.4,11.0,29.88,WSW,250,8.7,12.8,69,0.00,,,0.00,VWS V14.01,2013-02-21 00:40:00,
2013-02-20 19:45:00,19.4,11.0,29.88,WSW,242,12.3,17.4,69,0.00,,,0.00,VWS V14.01,2013-02-21 00:45:00,
2013-02-20 19:55:00,19.4,11.0,29.88,WSW,254,6.3,17.4,69,0.00,,,0.00,VWS V14.01,2013-02-21 00:55:00,
2013-02-20 20:05:00,19.0,10.3,29.88,SW,215,10.1,17.0,68,0.00,,,0.00,VWS V14.01,2013-02-21 01:05:00,
2013-02-20 20:10:00,19.0,10.3,29.88,West,275,6.3,15.4,68,0.00,,,0.00,VWS V14.01,2013-02-21 01:10:00,
2013-02-20 20:20:00,18.9,10.2,29.88,SW,231,13.2,17.4,68,0.00,,,0.00,VWS V14.01,2013-02-21 01:20:00,
2013-02-20 20:30:00,18.9,10.2,29.88,West,260,12.8,23.3,68,0.00,,,0.00,VWS V14.01,2013-02-21 01:30:00,
2013-02-20 20:40:00,18.9,10.2,29.91,West,260,12.8,23.3,68,0.00,,,0.00,VWS V14.01,2013-02-21 01:40:00,
2013-02-20 20:50:00,18.9,10.2,29.91,WSW,244,6.7,20.1,68,0.00,,,0.00,VWS V14.01,2013-02-21 01:50:00,
2013-02-20 20:55:00,18.9,10.2,29.91,WNW,283,12.8,20.1,68,0.00,,,0.00,VWS V14.01,2013-02-21 01:55:00,
2013-02-20 21:00:00,18.9,10.2,29.91,SSW,213,5.4,17.4,68,0.00,,,0.00,VWS V14.01,2013-02-21 02:00:00,
2013-02-20 21:05:00,18.9,10.2,29.91,WSW,247,8.1,17.4,68,0.00,,,0.00,VWS V14.01,2013-02-21 02:05:00,
2013-02-20 21:15:00,18.9,10.2,29.91,West,272,6.3,17.4,68,0.00,,,0.00,VWS V14.01,2013-02-21 02:15:00,
2013-02-20 21:25:00,18.9,10.2,29.91,West,277,12.8,21.0,68,0.00,,,0.00,VWS V14.01,2013-02-21 02:25:00,
2013-02-20 21:30:00,18.9,10.2,29.91,SW,234,15.4,21.0,68,0.00,,,0.00,VWS V14.01,2013-02-21 02:30:00,
2013-02-20 21:40:00,18.9,10.2,29.91,West,266,7.6,19.7,68,0.00,,,0.00,VWS V14.01,2013-02-21 02:40:00,
2013-02-20 21:45:00,18.9,10.2,29.91,WNW,283,9.6,17.4,68,0.00,,,0.00,VWS V14.01,2013-02-21 02:45:00,
2013-02-20 21:50:00,18.9,10.2,29.91,West,265,10.5,25.1,68,0.00,,,0.00,VWS V14.01,2013-02-21 02:50:00,
2013-02-20 22:00:00,18.9,10.2,29.91,WSW,258,7.2,26.2,68,0.00,,,0.00,VWS V14.01,2013-02-21 03:00:00,
2013-02-20 22:05:00,18.9,10.2,29.91,West,270,10.1,26.2,68,0.00,,,0.00,VWS V14.01,2013-02-21 03:05:00,
2013-02-20 22:15:00,18.9,10.2,29.91,WSW,251,10.5,16.8,68,0.00,,,0.00,VWS V14.01,2013-02-21 03:15:00,
2013-02-20 22:25:00,18.9,10.2,29.91,WSW,253,13.2,17.4,68,0.00,,,0.00,VWS V14.01,2013-02-21 03:25:00,
2013-02-20 22:35:00,18.9,10.2,29.91,SW,231,8.3,18.3,68,0.00,,,0.00,VWS V14.01,2013-02-21 03:35:00,
2013-02-20 22:40:00,18.9,10.2,29.91,WSW,252,8.7,21.5,68,0.00,,,0.00,VWS V14.01,2013-02-21 03:40:00,
2013-02-20 22:50:00,18.9,10.2,29.91,WSW,249,10.5,21.5,68,0.00,,,0.00,VWS V14.01,2013-02-21 03:50:00,
2013-02-20 23:00:00,18.9,10.2,29.91,WSW,244,12.3,20.1,68,0.00,,,0.00,VWS V14.01,2013-02-21 04:00:00,
2013-02-20 23:10:00,18.9,10.2,29.91,WSW,253,13.2,20.1,68,0.00,,,0.00,VWS V14.01,2013-02-21 04:10:00,
2013-02-20 23:15:00,18.9,10.2,29.91,SW,225,12.3,19.7,68,0.00,,,0.00,VWS V14.01,2013-02-21 04:15:00,
2013-02-20 23:20:00,18.9,10.2,29.91,West,261,8.3,19.7,68,0.00,,,0.00,VWS V14.01,2013-02-21 04:20:00,
2013-02-20 23:25:00,18.9,10.2,29.91,SW,232,8.1,17.4,68,0.00,,,0.00,VWS V14.01,2013-02-21 04:25:00,
2013-02-20 23:35:00,18.9,10.2,29.91,NW,318,5.4,16.8,68,0.00,,,0.00,VWS V14.01,2013-02-21 04:35:00,
2013-02-20 23:45:00,18.9,10.2,29.91,West,268,7.6,14.5,68,0.00,,,0.00,VWS V14.01,2013-02-21 04:45:00,
2013-02-20 23:50:00,18.9,10.2,29.91,WSW,254,11.0,17.4,68,0.00,,,0.00,VWS V14.01,2013-02-21 04:50:00,
2013-02-20 23:55:00,18.9,10.2,29.91,WSW,243,13.2,18.8,68,0.00,,,0.00,VWS V14.01,2013-02-21 04:55:00,